IK6ZNK-3 Weather Reports


Display with metric or nautical units.
time (UTC)temp
F
wind
direction
speed
MPH
gust
MPH
rain 1hr
in
rain 24hr
in
rain mn
in
humidity
%
barometer
mb
20260504020007 62 135 3.0 8.0 0.00 0.00 0.00 54 1010.0
20260504015007 62 135 4.0 8.0 0.00 0.00 0.00 54 1009.8
20260504014007 62 135 4.0 8.0 0.00 0.00 0.00 55 1009.7
20260504013006 62 135 4.0 6.0 0.00 0.00 0.00 55 1009.8
20260504012006 62 139 3.0 6.0 0.00 0.00 0.00 55 1009.7
20260504011006 62 145 2.0 5.0 0.00 0.00 0.00 56 1009.9
20260504010007 61 135 4.0 8.0 0.00 0.00 0.00 59 1009.8
20260504005007 61 135 4.0 8.0 0.00 0.00 0.00 59 1009.6
20260504004006 61 135 4.0 8.0 0.00 0.00 0.00 61 1009.8
20260504003007 61 135 5.0 8.0 0.00 0.00 0.00 60 1009.6
20260504002006 61 138 5.0 8.0 0.00 0.00 0.00 60 1009.8
20260504001006 61 135 4.0 7.0 0.00 0.00 0.00 60 1009.8
20260504000006 62 138 3.0 10.0 0.00 0.00 0.00 61 1009.9
20260503235006 62 119 1.0 4.0 0.00 0.00 0.00 60 1010.0
20260503234007 62 90 1.0 4.0 0.00 0.00 0.00 60 1010.0
20260503233007 62 158 1.0 8.0 0.00 0.00 0.00 60 1010.0
20260503232006 62 135 3.0 6.0 0.00 0.00 0.00 60 1009.9
20260503231006 63 135 3.0 4.0 0.00 0.00 0.00 58 1010.0
20260503230007 62 144 4.0 8.0 0.00 0.00 0.00 58 1009.9
20260503225006 63 153 4.0 7.0 0.00 0.00 0.00 59 1010.0
20260503224006 62 150 4.0 8.0 0.00 0.00 0.00 58 1010.2
20260503223007 62 170 6.0 11.0 0.00 0.00 0.00 59 1010.3
20260503222007 62 149 6.0 11.0 0.00 0.00 0.00 61 1010.1
20260503221006 62 186 5.0 12.0 0.00 0.00 0.00 61 1009.9
20260503220009 62 182 9.0 15.0 0.00 0.00 0.00 62 1009.8
20260503215006 62 168 9.0 15.0 0.00 0.00 0.00 63 1010.0
20260503214006 62 159 9.0 17.0 0.00 0.00 0.00 62 1009.9
20260503213007 62 156 8.0 15.0 0.00 0.00 0.00 62 1010.3
20260503212007 62 148 7.0 13.0 0.00 0.00 0.00 60 1010.2
20260503211006 62 142 6.0 12.0 0.00 0.00 0.00 58 1010.1
20260503210006 63 145 2.0 9.0 0.00 0.00 0.00 55 1010.3
20260503205006 63 90 0.0 3.0 0.00 0.00 0.00 51 1010.2
20260503204006 63 127 3.0 6.0 0.00 0.00 0.00 49 1010.2
20260503203006 62 135 5.0 8.0 0.00 0.00 0.00 55 1010.3
20260503202007 62 124 1.0 5.0 0.00 0.00 0.00 55 1010.2
20260503201006 63 97 0.0 2.0 0.00 0.00 0.00 54 1010.2
20260503200007 62 172 0.0 2.0 0.00 0.00 0.00 55 1010.2
20260503195006 62 181 0.0 2.0 0.00 0.00 0.00 55 1010.4
20260503194006 63 181 0.0 2.0 0.00 0.00 0.00 53 1010.2
20260503193006 64 175 1.0 4.0 0.00 0.00 0.00 53 1010.1
20260503192006 64 139 2.0 4.0 0.00 0.00 0.00 52 1010.0
20260503191006 64 163 2.0 4.0 0.00 0.00 0.00 51 1010.1
20260503190007 64 184 1.0 3.0 0.00 0.00 0.00 51 1010.0
20260503185007 64 222 1.0 3.0 0.00 0.00 0.00 51 1010.0
20260503184007 64 225 0.0 2.0 0.00 0.00 0.00 52 1010.0
20260503183007 64 225 1.0 3.0 0.00 0.00 0.00 52 1010.0
20260503182006 64 225 0.0 2.0 0.00 0.00 0.00 52 1009.9
20260503181006 64 253 1.0 2.0 0.00 0.00 0.00 53 1009.8
20260503180006 64 270 0.0 2.0 0.00 0.00 0.00 53 1009.8
20260503175007 64 270 0.0 2.0 0.00 0.00 0.00 54 1009.7
20260503174007 65 270 0.0 2.0 0.00 0.00 0.00 54 1009.7
20260503173007 66 293 1.0 4.0 0.00 0.00 0.00 53 1009.8
20260503172006 67 49 1.0 4.0 0.00 0.00 0.00 50 1009.5
20260503171006 67 84 1.0 4.0 0.00 0.00 0.00 48 1009.7
20260503151007 70 33 5.0 14.0 0.00 0.00 0.00 44 1009.9
20260503131009 72 50 3.0 11.0 0.00 0.00 0.00 41 1010.6
20260503081009 69 4 1.0 6.0 0.00 0.00 0.00 34 1012.3
20260503072008 67 13 1.0 5.0 0.00 0.00 0.00 44 1012.3
20260503071008 67 27 2.0 8.0 0.00 0.00 0.00 45 1012.2
20260503055006 62 135 4.0 7.0 0.00 0.00 0.00 40 1011.8
20260503054006 62 135 4.0 8.0 0.00 0.00 0.00 43 1011.9
20260503053006 60 135 5.0 9.0 0.00 0.00 0.00 42 1011.7
20260503052006 60 135 5.0 8.0 0.00 0.00 0.00 45 1011.9
20260503051006 60 135 5.0 9.0 0.00 0.00 0.00 43 1011.9
20260503050006 58 138 7.0 11.0 0.00 0.00 0.00 44 1011.8
20260503045007 58 135 6.0 10.0 0.00 0.00 0.00 46 1011.8
20260503044006 57 135 7.0 11.0 0.00 0.00 0.00 45 1011.7
20260503043007 56 135 8.0 14.0 0.00 0.00 0.00 47 1011.6
20260503042006 55 138 8.0 14.0 0.00 0.00 0.00 49 1011.7
20260503041006 56 135 7.0 13.0 0.00 0.00 0.00 49 1011.8
20260503040006 56 138 7.0 11.0 0.00 0.00 0.00 46 1011.5
20260503035006 56 138 8.0 12.0 0.00 0.00 0.00 46 1011.6
20260503034007 57 135 5.0 9.0 0.00 0.00 0.00 46 1011.5
20260503033007 56 138 5.0 8.0 0.00 0.00 0.00 45 1011.6
20260503032006 58 148 3.0 7.0 0.00 0.00 0.00 44 1011.6
20260503031007 58 157 1.0 4.0 0.00 0.00 0.00 41 1011.8
20260503030007 57 135 1.0 3.0 0.00 0.00 0.00 44 1011.8
20260503025006 58 135 1.0 4.0 0.00 0.00 0.00 43 1011.9
20260503024006 57 135 2.0 4.0 0.00 0.00 0.00 43 1011.9
20260503023007 58 135 1.0 3.0 0.00 0.00 0.00 43 1011.9
20260503022006 58 135 1.0 4.0 0.00 0.00 0.00 42 1012.1
20260503021006 58 90 0.0 2.0 0.00 0.00 0.00 43 1012.1